Home   Weather   Demmin   Past weeks

Flag for Germany Past Weather in Demmin, Mecklenburg-Western Pomerania, Germany — Yesterday and Last 2 Weeks

43 °F


Feels Like: 41 °F
Forecast: 35 / 53 °F
Wind: 3 mph from Southeast

Location: Laage

Current Time: Oct 23, 2016 at 5:09:24 AM

Latest Report: Oct 23, 2016 at 4:20 AM

Visibility: 3 mi

Pressure: 29.95 "Hg

Humidity: 93%

Dew Point: 41 °F

Location of DemminLocation

Past Weather in Demmin — Graph


Demmin Temperature Yesterday

Maximum temperature yesterday: 46 °F (at 11:20 AM)
Minimum temperature yesterday: 43 °F (at 11:20 PM)
Average temperature yesterday: 45 °F

High & Low Weather Summary for the Past Weeks

High54 °F (Oct 8, 1:20 PM)100% (Oct 9, 11:20 PM)30.30 "Hg (Oct 9, 11:20 PM)
Low34 °F (Oct 10, 6:20 AM)62% (Oct 8, 4:20 PM)29.89 "Hg (Oct 15, 7:20 AM)
Average46 °F90%30.11 "Hg
* Reported Oct 8 3:20 AM — Oct 23 3:20 AM, Demmin, Weather by CustomWeather, © 2016

Note: Actual official high and low records may vary slightly from our data, if they occured in-between our weather recording intervals... More about our weather records


Demmin Weather History for the Previous 24 Hours

Scroll right to see more
Time TempWeatherWind HumidityBarometerVisibility
3:20 AM
Sun, Oct 23
43 °FPassing clouds.3 mph93%29.98 "Hg4 mi
2:20 AM43 °FOvercast.3 mph100%29.98 "Hg4 mi
1:20 AM43 °FPassing clouds.3 mph93%29.98 "Hg4 mi
12:20 AM43 °FPassing clouds.2 mph93%29.95 "HgN/A
11:20 PM
Sat, Oct 22
43 °FMostly cloudy.2 mph100%29.95 "HgN/A
10:20 PM45 °FMostly cloudy.2 mph93%29.95 "Hg5 mi
9:20 PM45 °FFog.2 mph93%29.95 "Hg3 mi
8:20 PM45 °FDrizzle. Fog.2 mph93%29.95 "Hg2 mi
7:20 PM45 °FDrizzle. Fog.2 mph100%29.95 "Hg3 mi
6:20 PM46 °FDrizzle. Fog.2 mph93%29.92 "Hg2 mi
5:20 PM46 °FDrizzle. Fog.2 mph87%29.92 "Hg2 mi
4:20 PM46 °FDrizzle. Fog.2 mph93%29.92 "Hg2 mi
3:20 PM46 °FDrizzle. Fog.2 mph87%29.92 "Hg2 mi
2:50 PM46 °FDrizzle. Fog.2 mph93%29.92 "Hg2 mi
2:20 PM46 °FDrizzle. Fog.3 mph93%29.92 "Hg2 mi
1:47 PM46 °FLight rain. Fog.3 mph93%29.92 "Hg2 mi
1:20 PM46 °FFog.3 mph93%29.92 "Hg2 mi
12:20 PM46 °FLight rain. Fog.3 mph93%29.92 "Hg2 mi
12:03 PM46 °FLight rain. Fog.2 mph93%29.92 "Hg2 mi
11:20 AM46 °FFog.2 mph87%29.92 "Hg2 mi
10:20 AM45 °FFog.3 mph93%29.92 "Hg2 mi
9:20 AM45 °FFog.3 mph93%29.95 "Hg1 mi
9:02 AM45 °FFog.3 mph93%29.95 "Hg1 mi
8:20 AM45 °FFog.1 mph93%29.92 "Hg1 mi
7:20 AM45 °FFog.2 mph93%29.92 "Hg1 mi
6:20 AM45 °FDrizzle. Fog.6 mph93%29.95 "Hg2 mi
5:20 AM45 °FDrizzle. Fog.5 mph93%29.95 "Hg2 mi
Weather by CustomWeather, © 2016

See weather overviewHow to use our weather pages